Location: Balaclava NSW 2575, Australia
(34.4510°S, 150.4953°E)
Time: 13:21:09
(UTC+10:00)

XW-2C - Pass Details

Date: 07 August 2021
Orbit: 506 x 524 km, 97.5° (Epoch: 18 September)

Event Time Altitude Azimuth Distance (km) Brightness Sun altitude
Rises 04:47:31 0° 28° (NNE) 2,650 ? -24.8°
Reaches altitude 10° 04:49:41 10° 35° (NE) 1,769 ? -24.3°
Maximum altitude 04:53:17 41° 106° (ESE) 781 ? -23.6°
Drops below altitude 10° 04:56:56 10° 176° (S) 1,789 ? -22.8°
Enters shadow 04:57:22 - 178° (S) 1,965 ? -22.8°
